GW5544 Weather Reports


time (UTC)temp
C
wind
direction
speed
KPH
gust
KPH
rain 1hr
cm
rain 24hr
cm
rain mn
cm
humidity
%
barometer
mb
20260508033507 6 359 0.0 1.6 0.00 0.30 0.30 68 1008.1
20260508033023 6 359 0.0 1.6 0.00 0.30 0.30 65 1008.0
20260508032509 6 359 0.0 1.6 0.00 0.30 0.30 63 1008.0
20260508032008 6 360 0.0 1.6 0.00 0.33 0.30 64 1008.0
20260508031529 7 360 0.0 1.6 0.00 0.33 0.30 60 1008.0
20260508031008 7 360 0.0 0.0 0.00 0.33 0.30 60 1008.1
20260508030503 7 360 0.0 0.0 0.00 0.33 0.30 56 1008.1
20260508030008 6 359 0.0 0.0 0.00 0.33 0.30 57 1008.1
20260508025504 6 360 0.0 0.0 0.00 0.33 0.30 60 1008.1
20260508025003 7 359 0.0 0.0 0.00 0.33 0.30 64 1008.1
20260508024509 7 360 0.0 1.6 0.00 0.33 0.30 65 1008.0
20260508024007 7 360 0.0 1.6 0.00 0.33 0.30 65 1008.0
20260508023508 7 359 0.0 1.6 0.00 0.33 0.30 64 1008.0
20260508023026 7 360 0.0 1.6 0.00 0.33 0.30 60 1007.9
20260508022506 7 360 0.0 1.6 0.00 0.36 0.30 57 1007.9
20260508022008 7 360 0.0 1.6 0.00 0.36 0.30 59 1007.9
20260508021522 7 360 0.0 1.6 0.00 0.36 0.30 57 1008.0
20260508021015 7 360 0.0 1.6 0.00 0.36 0.30 58 1007.9
20260508020507 7 360 0.0 1.6 0.00 0.36 0.30 59 1007.7
20260508020025 7 360 0.0 1.6 0.00 0.36 0.30 60 1007.7
20260508015510 7 360 0.0 1.6 0.00 0.36 0.30 57 1007.7
20260508015005 8 360 0.0 1.6 0.00 0.36 0.30 60 1007.7
20260508014518 8 360 0.0 1.6 0.00 0.36 0.30 58 1007.4
20260508014007 8 360 0.0 1.6 0.00 0.36 0.30 59 1007.2
20260508013506 8 360 0.0 1.6 0.00 0.36 0.30 58 1007.3
20260508013014 8 360 0.0 0.0 0.00 0.38 0.30 59 1007.4
20260508012506 8 1 0.0 1.6 0.00 0.38 0.30 55 1007.3
20260508012006 8 360 0.0 1.6 0.00 0.38 0.30 55 1007.3
20260508011520 9 360 0.0 0.0 0.00 0.38 0.30 54 1007.2
20260508011007 9 360 0.0 1.6 0.00 0.38 0.30 54 1007.2
20260508010508 9 360 0.0 1.6 0.00 0.41 0.30 53 1007.2
20260508010027 9 360 0.0 1.6 0.00 0.41 0.30 55 1007.1
20260508005515 9 360 0.0 1.6 0.00 0.41 0.30 55 1007.0
20260508005009 10 360 0.0 1.6 0.00 0.41 0.30 53 1006.9
20260508004528 10 1 0.0 1.6 0.00 0.41 0.30 53 1006.8
20260508004004 10 360 0.0 1.6 0.00 0.41 0.30 55 1006.7
20260508003505 10 360 0.0 1.6 0.00 0.41 0.30 54 1006.6
20260508003048 10 360 0.0 1.6 0.00 0.43 0.30 52 1006.5
20260508002508 10 360 0.0 1.6 0.00 0.43 0.30 50 1006.4
20260508002010 11 360 0.0 1.6 0.00 0.43 0.30 50 1006.4
20260508001514 11 360 0.0 1.6 0.00 0.43 0.30 48 1006.4
20260508001006 11 360 0.0 1.6 0.00 0.43 0.30 50 1006.3
20260508000506 11 360 0.0 1.6 0.00 0.43 0.30 47 1006.2
20260508000022 11 1 0.0 1.6 0.00 0.43 0.30 49 1006.1
20260507235514 12 360 0.0 1.6 0.00 0.43 0.30 48 1006.1
20260507235010 12 360 0.0 1.6 0.00 0.43 0.30 46 1006.0
20260507234522 12 359 0.0 1.6 0.00 0.43 0.30 49 1006.0
20260507234010 12 359 0.0 1.6 0.00 0.43 0.30 45 1005.9
20260507233511 12 359 0.0 1.6 0.00 0.43 0.30 45 1005.9
20260507233033 12 359 0.0 1.6 0.00 0.43 0.30 45 1005.8
20260507232505 13 359 0.0 4.8 0.00 0.43 0.30 43 1005.7
20260507232006 13 359 0.0 4.8 0.00 0.43 0.30 41 1005.6
20260507231512 13 340 0.0 1.6 0.00 0.43 0.30 40 1005.5
20260507231009 13 340 0.0 1.6 0.00 0.43 0.30 43 1005.4
20260507230512 13 340 0.0 3.2 0.00 0.43 0.30 41 1005.3
20260507230022 13 340 0.0 3.2 0.00 0.43 0.30 38 1005.3
20260507225514 13 322 1.6 3.2 0.00 0.43 0.30 42 1005.3
20260507225009 14 288 1.6 6.4 0.00 0.43 0.30 41 1005.2
20260507224523 14 150 0.0 6.4 0.00 0.43 0.30 42 1005.1
20260507224007 14 147 0.0 1.6 0.00 0.43 0.30 37 1005.0
20260507223511 14 20 0.0 1.6 0.00 0.43 0.30 42 1005.0
20260507223026 14 320 0.0 3.2 0.00 0.43 0.30 37 1005.0
20260507222512 14 288 0.0 4.8 0.00 0.46 0.30 37 1004.9
20260507222010 15 302 0.0 4.8 0.00 0.46 0.30 38 1004.9
20260507221528 15 354 1.6 4.8 0.00 0.48 0.30 35 1004.9
20260507221009 15 341 1.6 6.4 0.00 0.48 0.30 35 1004.8
20260507220511 15 307 1.6 6.4 0.00 0.51 0.30 32 1004.7
20260507220017 15 321 1.6 6.4 0.00 0.51 0.30 36 1004.6
20260507215507 15 257 1.6 11.3 0.00 0.51 0.30 32 1004.7
20260507215008 15 297 1.6 11.3 0.00 0.51 0.30 35 1004.7
20260507214504 15 326 1.6 3.2 0.00 0.51 0.30 40 1004.8
20260507214004 15 259 0.0 6.4 0.00 0.51 0.30 40 1004.8
20260507213504 15 282 3.2 6.4 0.00 0.51 0.30 34 1004.8
20260507213004 15 283 1.6 8.0 0.00 0.53 0.30 33 1004.8
20260507212504 16 300 3.2 8.0 0.00 0.53 0.30 32 1004.8
20260507212004 16 321 0.0 4.8 0.00 0.53 0.30 33 1004.7
20260507211508 16 233 1.6 6.4 0.00 0.56 0.30 31 1004.7
20260507211003 16 240 1.6 6.4 0.00 0.61 0.30 39 1004.7
20260507210503 16 105 0.0 8.0 0.00 0.64 0.30 30 1004.7
20260507210014 16 211 1.6 8.0 0.00 0.64 0.30 32 1004.6
20260507205507 16 295 3.2 6.4 0.00 0.66 0.30 30 1004.6
20260507205006 16 354 1.6 6.4 0.00 0.69 0.30 31 1004.4
20260507204505 16 317 1.6 4.8 0.00 0.71 0.30 33 1004.5
20260507204003 16 340 3.2 6.4 0.00 0.74 0.30 32 1004.4
20260507203503 16 347 1.6 6.4 0.00 0.74 0.30 31 1004.3
20260507203011 16 219 1.6 6.4 0.00 0.74 0.30 30 1004.3
20260507202506 16 269 1.6 9.7 0.00 0.76 0.30 29 1004.4
20260507202002 16 249 3.2 9.7 0.00 0.76 0.30 31 1004.5
20260507201506 16 320 3.2 9.7 0.00 0.76 0.30 30 1004.3
20260507201004 16 265 3.2 9.7 0.00 0.76 0.30 30 1004.3
20260507200504 16 276 3.2 9.7 0.00 0.76 0.30 27 1004.3
20260507200010 17 251 3.2 9.7 0.00 0.79 0.30 30 1004.4
20260507195506 17 313 1.6 8.0 0.00 0.81 0.30 31 1004.3
20260507195007 17 321 3.2 8.0 0.00 0.84 0.30 30 1004.4
20260507194518 17 226 3.2 9.7 0.00 0.89 0.30 28 1004.3
20260507194009 17 276 3.2 9.7 0.00 0.89 0.30 30 1004.3
20260507193507 17 158 3.2 8.0 0.00 0.94 0.30 30 1004.4
20260507193005 17 319 4.8 8.0 0.00 0.97 0.30 29 1004.5
20260507192503 17 302 3.2 8.0 0.00 0.97 0.30 31 1004.6
20260507192003 17 321 3.2 8.0 0.00 0.99 0.30 31 1004.7
20260507191508 17 246 3.2 12.9 0.00 1.02 0.30 35 1004.7
20260507191004 17 287 4.8 12.9 0.00 1.04 0.30 36 1004.7
20260507190504 17 265 6.4 12.9 0.00 1.07 0.30 36 1004.7
20260507190008 17 234 1.6 9.7 0.00 1.09 0.30 35 1004.6
20260507185507 17 323 3.2 8.0 0.00 1.12 0.30 36 1004.7
20260507185003 17 323 3.2 8.0 0.00 1.14 0.30 38 1004.7
20260507184517 17 293 4.8 8.0 0.00 1.17 0.30 39 1004.7
20260507184007 17 288 3.2 9.7 0.00 1.19 0.30 42 1004.7
20260507183507 16 332 3.2 9.7 0.00 1.19 0.30 42 1004.7
20260507183022 17 8 3.2 9.7 0.00 1.19 0.30 43 1004.7
20260507182509 17 226 3.2 9.7 0.00 1.19 0.30 44 1004.8
20260507182001 16 335 3.2 6.4 0.00 1.19 0.30 47 1004.7
20260507181505 16 300 3.2 6.4 0.00 1.19 0.30 44 1004.8
20260507181003 16 300 1.6 9.7 0.00 1.19 0.30 41 1004.7
20260507180504 16 309 3.2 9.7 0.00 1.19 0.30 46 1004.8
20260507180011 17 282 1.6 6.4 0.00 1.19 0.30 41 1004.8
20260507175505 16 260 1.6 8.0 0.00 1.19 0.30 43 1004.9
20260507175004 16 261 3.2 8.0 0.00 1.19 0.30 44 1005.0
20260507174511 16 253 3.2 6.4 0.00 1.19 0.30 46 1005.0
20260507174006 16 321 1.6 8.0 0.00 1.19 0.30 46 1005.0
20260507173506 16 281 3.2 8.0 0.00 1.19 0.30 46 1005.1
20260507173016 15 319 3.2 6.4 0.00 1.19 0.30 52 1005.3
20260507172509 15 284 3.2 6.4 0.00 1.19 0.30 50 1005.3
20260507172012 15 243 0.0 3.2 0.00 1.19 0.30 58 1005.3
20260507171521 15 352 1.6 6.4 0.00 1.19 0.30 59 1005.3
20260507171008 14 311 1.6 6.4 0.00 1.19 0.30 60 1005.4
20260507170504 15 304 3.2 6.4 0.00 1.19 0.30 59 1005.4
20260507170005 15 223 1.6 8.0 0.00 1.19 0.30 58 1005.3
20260507165502 15 259 3.2 8.0 0.00 1.19 0.30 56 1005.5
20260507165003 16 226 3.2 11.3 0.00 1.19 0.30 55 1005.5
20260507164510 16 212 3.2 11.3 0.00 1.19 0.30 46 1005.4
20260507164005 16 168 3.2 6.4 0.00 1.19 0.30 46 1005.4
20260507163507 16 311 3.2 6.4 0.00 1.19 0.30 47 1005.4
20260507163019 16 330 3.2 6.4 0.00 1.19 0.30 48 1005.4
20260507162507 16 255 1.6 4.8 0.00 1.19 0.30 49 1005.4
20260507162011 15 339 3.2 6.4 0.00 1.19 0.30 48 1005.5
20260507161518 15 317 3.2 6.4 0.00 1.19 0.30 49 1005.6
20260507161007 15 279 1.6 6.4 0.00 1.19 0.30 50 1005.6
20260507160509 15 12 1.6 6.4 0.00 1.19 0.30 47 1005.7
20260507160022 16 214 3.2 6.4 0.00 1.19 0.30 45 1005.8
20260507155507 16 356 3.2 6.4 0.00 1.19 0.30 49 1005.9
20260507155003 16 269 1.6 6.4 0.00 1.19 0.30 46 1006.0
20260507154508 16 266 3.2 6.4 0.00 1.19 0.30 52 1006.1
20260507154009 16 200 3.2 6.4 0.00 1.19 0.30 51 1006.2
20260507153506 15 278 1.6 4.8 0.00 1.19 0.30 57 1006.3
20260507153009 15 342 1.6 6.4 0.00 1.19 0.30 56 1006.4
20260507152506 15 280 3.2 6.4 0.00 1.19 0.30 54 1006.4
20260507152009 15 259 1.6 6.4 0.00 1.19 0.30 54 1006.2
20260507151517 15 250 1.6 6.4 0.00 1.19 0.30 56 1006.3
20260507151008 15 208 1.6 4.8 0.00 1.19 0.30 57 1006.2
20260507150513 15 308 1.6 4.8 0.00 1.19 0.30 58 1006.3
20260507150022 14 316 0.0 4.8 0.00 1.19 0.30 59 1006.3
20260507145512 14 285 0.0 4.8 0.00 1.19 0.30 58 1006.4
20260507145007 13 352 1.6 4.8 0.00 1.19 0.30 61 1006.4
20260507144525 13 49 1.6 4.8 0.00 1.19 0.30 62 1006.5
20260507144004 13 316 1.6 4.8 0.00 1.19 0.30 62 1006.4
20260507143503 13 284 1.6 6.4 0.00 1.19 0.30 63 1006.5
20260507143008 13 239 1.6 6.4 0.00 1.19 0.30 65 1006.5
20260507142505 13 321 1.6 6.4 0.00 1.19 0.30 67 1006.7
20260507142009 12 309 3.2 6.4 0.00 1.19 0.30 62 1006.8
20260507141512 12 61 1.6 4.8 0.00 1.19 0.30 67 1006.9
20260507141008 12 348 0.0 6.4 0.00 1.19 0.30 67 1006.9
20260507140507 12 309 1.6 6.4 0.00 1.19 0.30 67 1006.9
20260507140026 12 248 0.0 4.8 0.00 1.19 0.30 72 1006.8
20260507135508 12 262 0.0 4.8 0.00 1.19 0.30 70 1006.8
20260507135007 12 342 0.0 4.8 0.00 1.19 0.30 68 1006.9
20260507134526 11 39 1.6 4.8 0.00 1.19 0.30 70 1007.0
20260507134009 11 9 3.2 4.8 0.00 1.19 0.30 73 1007.0
20260507133513 11 337 1.6 4.8 0.00 1.19 0.30 71 1007.0
20260507133008 11 343 1.6 4.8 0.00 1.19 0.30 72 1007.1
20260507132506 11 309 1.6 4.8 0.00 1.19 0.30 73 1007.0
20260507132007 11 78 0.0 3.2 0.00 1.19 0.30 78 1007.0
20260507131512 10 270 0.0 3.2 0.00 1.19 0.30 79 1007.1
20260507131009 10 343 1.6 3.2 0.00 1.19 0.30 76 1007.1
20260507130506 10 320 0.0 3.2 0.00 1.19 0.30 80 1007.0
20260507130017 10 320 0.0 3.2 0.00 1.19 0.30 80 1007.0
20260507125510 10 331 1.6 3.2 0.00 1.19 0.30 81 1007.2
20260507125008 10 354 0.0 3.2 0.00 1.19 0.30 83 1007.1
20260507124512 10 354 1.6 4.8 0.00 1.19 0.30 85 1007.2
20260507124007 10 2 0.0 4.8 0.00 1.19 0.30 86 1007.2
20260507123505 9 325 0.0 4.8 0.00 1.19 0.30 83 1007.2
20260507123004 9 323 1.6 4.8 0.00 1.19 0.30 85 1007.1
20260507122507 9 319 0.0 3.2 0.00 1.19 0.30 88 1007.1
20260507122006 9 319 1.6 4.8 0.00 1.19 0.30 86 1007.1
20260507121509 8 221 1.6 4.8 0.00 1.19 0.30 84 1007.0
20260507121008 8 293 0.0 3.2 0.00 1.19 0.30 86 1007.1
20260507120508 8 316 0.0 3.2 0.00 1.19 0.30 87 1007.0
20260507120003 8 311 1.6 3.2 0.00 1.19 0.30 89 1007.1
20260507115506 8 274 0.0 1.6 0.00 1.19 0.30 92 1007.1
20260507115006 8 274 0.0 1.6 0.00 1.19 0.30 93 1007.0
20260507114507 8 264 0.0 1.6 0.00 1.19 0.30 94 1007.1
20260507114004 7 265 0.0 1.6 0.00 1.19 0.30 94 1006.9
20260507113502 7 264 0.0 1.6 0.00 1.19 0.30 94 1007.0
20260507113006 7 264 0.0 0.0 0.00 1.19 0.30 94 1007.0
20260507112506 7 264 0.0 0.0 0.00 1.19 0.30 94 1007.2
20260507112006 7 264 0.0 1.6 0.00 1.19 0.30 94 1007.5
20260507111510 7 265 0.0 1.6 0.00 1.19 0.30 94 1007.5
20260507111003 7 265 0.0 1.6 0.00 1.19 0.30 95 1007.6
20260507110507 7 264 0.0 1.6 0.00 1.19 0.30 95 1007.9
20260507110015 7 264 0.0 1.6 0.00 1.19 0.30 94 1007.2
20260507105506 7 264 0.0 1.6 0.00 1.19 0.30 95 1007.4
20260507105007 7 264 0.0 1.6 0.00 1.19 0.30 95 1007.6
20260507104503 7 264 0.0 1.6 0.00 1.19 0.30 95 1007.9
20260507104003 6 264 0.0 1.6 0.00 1.19 0.30 94 1007.8
20260507103502 6 264 0.0 1.6 0.00 1.19 0.30 94 1007.6
20260507103007 6 264 0.0 1.6 0.00 1.19 0.30 94 1007.4
20260507102504 6 264 0.0 1.6 0.00 1.19 0.30 94 1008.0
20260507102006 6 260 0.0 1.6 0.00 1.19 0.30 94 1007.2
20260507101508 6 260 0.0 1.6 0.00 1.19 0.30 94 1007.5
20260507101003 6 260 0.0 1.6 0.00 1.19 0.30 94 1007.5
20260507100503 6 260 0.0 1.6 0.00 1.19 0.30 94 1007.5
20260507100025 6 260 0.0 1.6 0.00 1.19 0.30 94 1007.6
20260507095507 6 260 0.0 1.6 0.00 1.19 0.30 94 1007.4
20260507095012 6 260 0.0 1.6 0.00 1.19 0.30 94 1007.0
20260507094517 6 260 0.0 1.6 0.00 1.19 0.30 94 1007.0
20260507094007 6 259 0.0 1.6 0.00 1.19 0.30 94 1006.8
20260507093506 6 260 0.0 1.6 0.00 1.19 0.30 94 1007.2
20260507093003 7 260 0.0 1.6 0.00 1.19 0.30 94 1006.8
20260507092505 7 260 0.0 1.6 0.00 1.19 0.30 94 1006.5
20260507092002 7 260 0.0 1.6 0.00 1.19 0.30 94 1006.6
20260507091514 7 260 0.0 1.6 0.00 1.19 0.30 94 1006.8
20260507091003 7 260 0.0 1.6 0.00 1.19 0.30 94 1006.9
20260507090503 7 260 0.0 1.6 0.00 1.19 0.30 94 1007.2
20260507090008 7 260 0.0 1.6 0.00 1.19 0.30 94 1007.1
20260507085503 7 260 0.0 1.6 0.00 1.19 0.30 94 1007.0
20260507085004 7 260 0.0 1.6 0.00 1.19 0.30 94 1006.9
20260507084514 7 260 0.0 1.6 0.00 1.19 0.30 94 1007.4
20260507084004 7 261 0.0 1.6 0.00 1.19 0.30 94 1007.3
20260507083508 7 262 0.0 1.6 0.00 1.19 0.30 94 1007.1
20260507083021 7 276 0.0 1.6 0.00 1.19 0.30 94 1006.7
20260507082508 7 274 0.0 1.6 0.00 1.19 0.30 94 1006.4
20260507082003 7 274 0.0 1.6 0.00 1.19 0.30 94 1006.6
20260507081504 8 271 0.0 1.6 0.00 1.19 0.30 94 1006.9
20260507081003 8 271 0.0 1.6 0.00 1.19 0.30 94 1007.2
20260507080505 8 335 0.0 1.6 0.00 1.19 0.30 94 1006.7
20260507080008 8 335 0.0 1.6 0.00 1.19 0.30 94 1006.5
20260507075503 8 335 0.0 1.6 0.00 1.19 0.30 94 1006.3
20260507075009 8 335 0.0 1.6 0.00 1.19 0.30 94 1006.3
20260507074512 8 336 0.0 1.6 0.00 1.19 0.30 94 1006.0
20260507074003 8 266 0.0 1.6 0.00 1.19 0.30 94 1006.5
20260507073507 8 348 0.0 1.6 0.00 1.19 0.30 94 1006.3
20260507073014 8 277 0.0 1.6 0.00 1.19 0.30 94 1006.3
20260507072511 8 277 0.0 1.6 0.00 1.19 0.30 94 1006.2
20260507072009 8 277 0.0 1.6 0.00 1.19 0.30 94 1006.2
20260507071520 8 277 0.0 1.6 0.00 1.19 0.30 94 1006.3
20260507071012 8 277 0.0 1.6 0.00 1.19 0.30 94 1006.3
20260507070506 8 277 0.0 1.6 0.00 1.19 0.30 94 1006.0
20260507070008 8 277 0.0 1.6 0.00 1.19 0.30 94 1005.9
20260507065504 9 277 0.0 1.6 0.00 1.19 0.30 94 1006.0
20260507065004 9 277 0.0 1.6 0.00 1.19 0.30 95 1006.1
20260507064512 9 277 0.0 1.6 0.00 1.19 0.30 94 1005.9
20260507064006 9 277 0.0 0.0 0.00 1.19 0.30 94 1005.8
20260507063507 9 277 0.0 1.6 0.00 1.19 0.30 94 1005.8
20260507063012 9 277 0.0 1.6 0.00 1.19 0.30 94 1005.7
20260507062510 9 277 0.0 1.6 0.00 1.19 0.30 94 1005.8
20260507062011 9 277 0.0 1.6 0.03 1.19 0.30 94 1005.5
20260507061529 9 277 0.0 1.6 0.03 1.19 0.30 94 1005.5
20260507061008 10 277 0.0 1.6 0.03 1.19 0.30 95 1005.4
20260507060508 10 277 0.0 1.6 0.03 1.19 0.30 95 1005.5
20260507060029 10 277 0.0 1.6 0.03 1.19 0.30 94 1005.5
20260507055503 10 277 0.0 1.6 0.03 1.19 0.30 95 1005.5
20260507055005 10 277 0.0 1.6 0.03 1.19 0.30 94 1005.6
20260507054505 10 277 0.0 1.6 0.03 1.19 0.30 94 1005.4
20260507054004 10 277 0.0 1.6 0.05 1.19 0.30 94 1005.6
20260507053504 10 277 0.0 1.6 0.05 1.19 0.30 94 1005.7
20260507053011 10 277 0.0 1.6 0.05 1.19 0.30 94 1005.5
20260507052504 10 277 0.0 1.6 0.08 1.19 0.30 94 1005.5
20260507052008 10 277 0.0 1.6 0.10 1.17 0.28 94 1005.5
20260507051519 10 277 0.0 1.6 0.20 1.17 0.28 94 1005.4
20260507051009 10 277 0.0 1.6 0.25 1.17 0.28 94 1005.5
20260507050507 10 314 0.0 1.6 0.28 1.17 0.28 94 1005.4
20260507050030 10 316 0.0 3.2 0.28 1.17 0.28 95 1005.4
20260507045509 10 332 0.0 3.2 0.28 1.17 0.28 95 1005.4
20260507045009 11 219 0.0 3.2 0.28 1.17 0.28 95 1005.5
20260507044538 11 309 0.0 3.2 0.28 1.17 0.28 95 1005.4
20260507044004 11 319 1.6 3.2 0.25 1.14 0.25 95 1005.3
20260507043504 11 354 0.0 1.6 0.25 1.14 0.25 95 1005.3
20260507043009 11 316 0.0 3.2 0.25 1.14 0.25 95 1005.4
20260507042507 11 316 0.0 4.8 0.23 1.12 0.23 95 1005.3
20260507042006 11 11 0.0 4.8 0.20 1.07 0.18 95 1005.4
20260507041515 11 309 1.6 3.2 0.10 0.97 0.08 95 1005.7
20260507041008 11 253 1.6 1.6 0.05 0.91 0.03 95 1005.5
20260507040511 10 345 0.0 1.6 0.03 0.89 0.00 95 1005.2
20260507040019 10 345 0.0 3.2 0.03 0.89 0.00 95 1005.2
20260507035508 10 345 0.0 3.2 0.03 0.89 0.89 95 1005.1
20260507035009 10 201 0.0 0.0 0.03 0.89 0.89 95 1004.6
20260507034522 10 202 0.0 0.0 0.03 0.89 0.89 95 1004.5
20260507034008 10 202 0.0 0.0 0.03 0.89 0.89 95 1004.6